Location: Grasslands National Park East Block
(49.0708°N, 106.5295°W)
Time: 02:28:36
(UTC-06:00)

Vanguard 1 - Pass Details

Date: 30 September 2019
Orbit: 653 x 3830 km, 34.2° (Epoch: 22 October)

Event Time Altitude Azimuth Distance (km) Brightness Sun altitude
Rises 06:24:58 0° 278° (W) 7,964 - -7.2°
Exits shadow 06:29:10 - 273° (W) 7,274 13.8 -6.5°
Reaches altitude 10° 06:31:22 10° 270° (W) 6,916 13.7 -6.2°
Maximum altitude 06:49:16 32° 218° (SW) 4,583 13.2 -3.3°
Drops below altitude 10° 07:02:22 10° 163° (SSE) 5,035 14.0 -1.1°
Sets 07:06:09 0° 153° (SSE) 5,624 14.4 -0.5°
